Date,TemperatureHighF,TemperatureAvgF,TemperatureLowF,DewpointHighF,DewpointAvgF,DewpointLowF,HumidityHigh,HumidityAvg,HumidityLow,PressureMaxIn,PressureMinIn,WindSpeedMaxMPH,WindSpeedAvgMPH,GustSpeedMaxMPH,PrecipitationSumIn
2013-1-1,33.4,23.1,10.0,30.0,18.7,7.0,93,83,72,29.95,29.75,15,7,24,0.00
2013-1-2,25.3,19.3,11.8,21.0,14.9,7.0,93,83,72,30.15,29.91,14,6,23,0.00
2013-1-3,28.5,22.2,12.0,25.0,18.6,8.0,91,85,76,30.14,29.93,19,4,19,0.00
2013-1-4,33.9,30.9,28.3,26.0,23.2,20.0,89,74,61,29.93,29.81,22,11,27,0.01
2013-1-5,33.7,31.1,26.3,27.0,24.7,21.0,83,77,67,30.21,29.94,19,6,27,0.01
2013-1-6,37.5,34.0,30.1,33.0,28.7,24.0,94,81,72,30.03,29.82,14,4,21,0.02
2013-1-7,35.0,28.6,25.4,33.0,25.1,21.0,95,86,72,30.30,29.96,14,4,21,0.00
2013-1-8,40.8,32.4,27.2,27.0,23.6,22.0,82,71,58,30.25,30.14,9,1,12,0.00
2013-1-9,48.5,37.2,27.6,36.0,27.7,21.0,81,69,51,30.24,29.92,20,6,35,0.00
2013-1-10,38.7,34.8,31.3,30.0,28.2,27.0,84,77,67,30.48,30.23,14,6,24,0.00
2013-1-11,39.5,36.5,31.1,37.0,31.0,26.0,91,80,68,30.38,29.90,13,3,16,0.14
2013-1-12,52.9,44.7,39.1,48.0,42.8,37.0,97,93,84,29.98,29.93,6,1,13,0.00
2013-1-13,57.3,50.8,44.9,53.0,48.4,44.0,97,91,83,29.94,29.73,10,2,22,0.00
2013-1-14,54.1,38.7,29.2,51.0,33.3,23.0,93,81,67,30.27,29.68,21,7,30,0.01
2013-1-15,34.0,29.5,27.2,24.0,23.0,21.0,83,77,62,30.30,30.11,7,3,12,0.00
2013-1-16,34.3,31.0,28.3,30.0,27.3,23.0,94,87,73,30.10,29.71,11,2,18,0.04
2013-1-17,34.2,26.3,18.5,30.0,21.4,14.0,93,82,72,30.08,29.79,20,7,25,0.00
2013-1-18,28.7,19.9,13.9,16.0,11.9,6.0,91,73,52,30.34,30.04,19,6,24,0.00
2013-1-19,47.1,39.5,29.5,29.0,21.7,15.0,55,49,45,30.05,29.59,12,4,18,0.00
2013-1-20,45.3,32.2,20.6,34.0,20.4,11.0,87,63,50,29.96,29.40,29,14,39,0.01
2013-1-21,23.9,19.4,13.9,19.0,12.7,7.0,93,76,59,29.96,29.76,16,5,20,0.00
2013-1-22,15.1,10.1,6.9,9.0,0.2,-3.0,75,65,54,30.10,29.80,21,12,32,0.00
2013-1-23,13.5,7.2,4.1,6.0,1.1,-3.0,88,76,66,30.14,30.06,13,4,18,0.00
2013-1-24,13.4,8.8,2.4,8.0,3.7,-1.0,90,79,67,30.44,30.05,16,7,27,0.00
2013-1-25,18.1,13.3,9.3,12.0,9.4,6.0,90,84,70,30.40,30.00,11,3,20,0.00
2013-1-26,18.6,13.0,6.3,14.0,9.7,4.0,92,87,76,30.32,30.01,6,1,8,0.02
2013-1-27,29.0,19.7,12.8,18.0,15.3,11.0,93,83,64,30.48,30.32,7,2,10,0.02
2013-1-28,39.7,30.8,22.4,40.0,27.4,14.0,99,88,69,30.34,29.83,7,2,14,0.15
2013-1-29,50.1,42.0,35.2,49.0,41.4,35.0,100,97,94,29.98,29.76,12,2,18,0.27
2013-1-30,59.3,53.8,49.4,55.0,51.1,48.0,97,91,85,29.73,29.00,12,4,19,0.20
2013-1-31,53.0,32.8,20.2,52.0,26.6,16.0,98,78,61,29.61,28.91,28,15,42,0.25
2013-2-1,21.7,20.0,18.0,17.0,13.0,10.0,90,74,62,30.12,29.61,24,11,27,0.00
2013-2-2,20.5,17.7,14.1,16.0,11.4,7.0,87,76,64,30.12,29.91,13,4,21,0.00
2013-2-3,26.9,19.9,13.6,20.0,16.1,11.0,93,85,71,29.90,29.69,15,3,20,0.00
2013-2-4,20.8,19.4,18.2,16.0,12.6,9.0,89,75,64,29.87,29.76,22,9,29,0.00
2013-2-5,30.2,22.8,16.8,22.0,17.7,14.0,88,81,63,29.88,29.76,7,1,10,0.00
2013-2-6,27.4,23.5,14.4,25.0,17.3,8.0,93,78,62,30.30,29.80,24,7,27,0.00
2013-2-7,34.2,23.8,12.1,20.0,14.6,8.0,87,69,54,30.38,30.06,10,2,14,0.00
2013-2-8,35.0,30.9,21.5,31.0,27.2,18.0,97,86,64,30.06,29.68,18,4,22,0.00
2013-2-9,21.3,17.5,12.7,20.0,15.6,11.0,95,92,88,30.34,29.86,23,9,27,0.00
2013-2-10,38.9,23.4,9.0,21.0,14.2,7.0,93,71,44,30.36,29.99,12,2,15,0.16
2013-2-11,46.1,37.0,32.7,38.0,30.1,18.0,93,77,55,29.99,29.51,23,4,29,0.03
2013-2-12,36.0,33.3,30.9,29.0,26.2,24.0,80,75,69,29.88,29.64,22,11,30,0.00
2013-2-13,43.8,32.6,26.3,26.0,23.6,22.0,83,70,49,29.83,29.61,11,4,15,0.00
2013-2-14,45.3,33.5,23.8,33.0,27.1,21.0,92,78,50,29.85,29.69,8,2,14,0.00
2013-2-15,38.5,35.1,27.5,33.0,27.1,20.0,86,73,57,29.94,29.71,15,6,24,0.00
2013-2-16,29.7,23.9,20.2,23.0,16.6,12.0,84,74,61,29.94,29.81,12,5,16,0.00
2013-2-17,20.5,15.3,11.6,13.0,8.9,4.0,89,76,63,30.05,29.77,23,10,33,0.00
2013-2-18,35.2,21.7,12.5,16.0,11.5,8.0,84,67,42,30.21,29.93,20,6,25,0.00
2013-2-19,37.2,32.9,26.2,34.0,24.7,14.0,96,74,52,29.93,29.51,24,5,28,0.05
2013-2-20,25.8,21.6,18.8,18.0,14.7,12.0,92,75,67,29.96,29.68,21,14,33,0.00
2013-2-21,19.9,17.5,14.2,17.0,13.6,9.0,91,85,75,30.34,29.92,23,10,34,0.00
2013-2-22,35.5,27.5,16.2,26.0,21.5,14.0,93,79,64,30.32,29.99,14,2,14,0.00
2013-2-23,38.5,34.8,31.1,36.0,31.7,25.0,95,88,76,30.00,29.77,9,2,13,0.05
2013-2-24,31.1,30.4,28.9,29.0,26.1,24.0,94,84,77,29.95,29.75,18,6,20,0.00
2013-2-25,35.5,31.9,27.2,30.0,27.3,24.0,90,83,74,30.15,29.95,12,5,14,0.00
2013-2-26,43.9,33.9,26.1,32.0,27.5,23.0,95,79,57,30.15,29.77,14,3,19,0.07
2013-2-27,36.6,34.3,32.8,36.0,33.3,32.0,99,96,91,29.79,29.46,11,2,14,0.82
2013-2-28,42.7,34.5,31.6,37.0,33.0,31.0,99,94,75,29.59,29.46,11,3,12,0.44
2013-3-1,31.9,29.2,25.8,31.0,27.9,23.0,98,95,88,29.81,29.59,16,9,22,0.00
2013-3-2,26.3,23.7,22.4,25.0,22.0,21.0,96,93,87,29.82,29.75,15,8,19,0.00
2013-3-3,23.4,22.1,20.6,22.0,19.4,17.0,95,89,82,29.80,29.73,13,7,21,0.00
2013-3-4,28.0,24.6,21.5,23.0,20.1,17.0,89,83,75,29.93,29.79,18,11,25,0.00
2013-3-5,32.8,26.3,20.6,25.0,22.1,19.0,92,84,73,30.01,29.89,18,4,21,0.01
2013-3-6,40.7,34.4,21.4,32.0,27.6,20.0,96,77,64,30.02,29.86,8,3,15,0.00
2013-3-7,36.8,33.3,28.5,30.0,26.1,24.0,87,75,64,30.14,30.02,15,5,18,0.00
2013-3-8,35.2,30.7,26.7,29.0,25.7,22.0,96,82,68,30.29,30.12,21,10,27,0.00
2013-3-9,46.5,33.8,24.3,33.0,26.8,20.0,95,77,47,30.33,30.17,7,1,10,0.00
2013-3-10,58.0,46.7,34.6,31.0,27.0,24.0,69,47,34,30.18,29.97,10,2,14,0.00
2013-3-11,52.7,49.0,45.2,45.0,32.7,26.0,78,54,43,29.98,29.66,10,3,19,0.00
2013-3-12,52.3,42.1,35.1,48.0,39.0,31.0,97,89,79,29.81,29.62,13,5,18,0.27
2013-3-13,38.5,33.2,25.4,32.0,25.7,17.0,95,75,60,29.84,29.71,20,9,30,0.01
2013-3-14,30.8,24.7,18.6,20.0,13.6,9.0,86,64,41,29.95,29.82,31,15,35,0.00
2013-3-15,35.9,30.0,22.2,30.0,22.6,16.0,86,74,63,29.95,29.64,21,8,24,0.00
2013-3-16,30.2,25.7,19.2,24.0,19.3,15.0,85,76,69,29.88,29.72,14,5,21,0.00
2013-3-17,29.0,23.6,16.5,23.0,17.8,13.0,90,79,65,30.25,29.88,13,5,18,0.00
2013-3-18,34.5,25.3,18.0,27.0,17.6,10.0,96,75,43,30.27,29.74,21,3,21,0.00
2013-3-19,40.3,31.7,26.9,36.0,28.8,20.0,98,89,65,29.75,29.58,15,5,22,0.17
2013-3-20,31.5,26.9,22.8,24.0,19.8,14.0,93,75,59,29.75,29.71,18,8,24,0.00
2013-3-21,29.2,24.6,15.3,24.0,16.7,11.0,91,72,55,29.75,29.64,12,6,18,0.00
2013-3-22,30.7,28.3,25.1,26.0,24.1,21.0,93,84,78,29.82,29.64,19,10,24,0.00
2013-3-23,35.2,31.5,29.1,26.0,25.0,23.0,87,77,64,29.90,29.79,19,10,24,0.00
2013-3-24,38.5,31.8,25.9,28.0,24.6,23.0,92,76,58,29.89,29.64,9,4,13,0.00
2013-3-25,41.1,35.0,30.0,30.0,26.7,24.0,87,72,56,29.62,29.47,12,4,19,0.00
2013-3-26,43.2,35.6,30.6,33.0,29.4,25.0,92,79,56,29.83,29.59,13,5,20,0.00
2013-3-27,44.4,36.2,32.5,34.0,30.6,27.0,97,81,55,29.95,29.80,16,6,25,0.00
2013-3-28,41.7,36.3,32.0,36.0,32.6,31.0,97,87,70,30.10,29.93,11,6,18,0.04
2013-3-29,44.5,38.7,33.9,36.0,32.5,29.0,88,79,63,30.10,30.02,10,3,15,0.00
2013-3-30,49.9,39.7,29.5,32.0,27.7,24.0,87,65,37,30.11,29.98,11,3,13,0.00
2013-3-31,52.6,41.8,34.2,42.0,32.6,23.0,97,72,50,29.98,29.57,7,2,19,0.31
2013-4-1,45.4,36.0,26.3,41.0,30.6,20.0,96,82,53,29.85,29.48,26,8,29,0.03
2013-4-2,33.2,27.6,23.7,24.0,18.4,15.0,85,69,51,30.02,29.84,21,12,29,0.00
2013-4-3,34.5,29.6,25.8,22.0,18.5,14.0,80,64,45,30.28,30.00,20,12,31,0.00
2013-4-4,55.3,37.2,23.0,25.0,20.9,18.0,85,55,28,30.27,29.85,15,3,20,0.00
2013-4-5,44.3,38.1,30.2,30.0,23.1,16.0,72,56,40,30.02,29.79,19,6,25,0.00
2013-4-6,52.0,36.4,24.9,23.0,18.6,12.0,84,53,22,30.25,30.03,10,3,14,0.00
2013-4-7,68.7,53.0,42.5,46.0,32.7,18.0,75,47,35,30.03,29.68,12,5,30,0.00
2013-4-8,67.1,52.7,39.5,47.0,38.2,34.0,82,61,38,30.02,29.72,7,2,12,0.00
2013-4-9,66.2,54.5,45.9,50.0,45.1,41.0,94,72,46,29.99,29.71,21,6,33,0.36
2013-4-10,50.3,46.3,40.2,50.0,45.9,40.0,99,98,94,29.90,29.71,13,4,27,0.36
2013-4-11,40.0,37.3,34.5,40.0,35.1,30.0,100,92,78,30.02,29.84,9,4,14,0.02
2013-4-12,48.4,41.7,37.1,45.0,40.0,35.0,98,93,87,29.86,29.52,13,4,22,0.28
2013-4-13,46.4,41.3,37.9,38.0,36.0,33.0,94,81,65,29.85,29.70,14,4,22,0.02
2013-4-14,46.4,39.7,34.8,36.0,30.8,28.0,89,72,53,30.11,29.85,12,6,19,0.00
2013-4-15,68.1,52.6,35.1,49.0,39.7,29.0,79,63,48,30.11,30.00,10,3,21,0.00
2013-4-16,64.1,55.2,44.9,58.0,49.7,35.0,97,82,69,30.11,29.88,13,4,22,0.24
2013-4-17,54.8,45.8,37.5,41.0,35.6,33.0,84,69,48,30.23,30.10,13,4,20,0.00
2013-4-18,67.7,57.3,41.2,55.0,45.7,35.0,85,66,49,30.15,29.75,12,4,23,0.00
2013-4-19,73.1,59.2,42.1,61.0,53.0,38.0,94,81,65,29.75,29.32,12,5,26,0.36
2013-4-20,43.1,39.3,32.0,38.0,29.3,22.0,85,68,51,30.30,29.64,20,10,32,0.00
2013-4-21,46.7,35.6,28.3,28.0,24.6,20.0,87,66,43,30.57,30.30,14,4,18,0.00
2013-4-22,62.1,46.0,30.0,32.0,26.3,23.0,79,49,27,30.52,30.30,9,2,18,0.00
2013-4-23,63.3,48.9,36.0,40.0,32.5,24.0,73,55,34,30.30,29.93,11,2,16,0.00
2013-4-24,66.9,52.9,41.5,55.0,45.4,36.0,90,76,57,29.93,29.56,28,5,28,0.12
2013-4-25,62.6,45.8,36.4,37.0,31.9,27.0,82,61,30,30.21,29.89,18,6,27,0.00
2013-4-26,52.9,44.4,35.3,38.0,34.0,30.0,96,69,44,30.37,30.21,13,4,16,0.06
2013-4-27,67.4,51.7,35.6,40.0,33.7,29.0,85,54,28,30.35,30.15,9,2,10,0.00
2013-4-28,71.5,58.7,45.5,47.0,39.1,35.0,88,51,29,30.15,29.95,11,2,15,0.08
2013-4-29,59.2,54.0,49.7,52.0,47.3,40.0,90,78,66,30.01,29.93,8,2,16,0.03
2013-4-30,70.7,59.1,52.2,56.0,51.6,49.0,90,77,57,30.14,29.99,6,1,12,0.00
2013-5-1,79.6,63.9,51.9,49.0,38.3,29.0,77,43,21,30.28,30.14,6,1,12,0.00
2013-5-2,82.2,65.6,50.6,46.0,39.7,32.0,59,40,24,30.33,30.16,10,2,15,0.00
2013-5-3,79.5,64.9,54.2,47.0,42.6,32.0,68,46,29,30.23,30.11,7,1,13,0.00
2013-5-4,79.8,63.0,46.8,47.0,39.5,33.0,63,44,24,30.19,30.04,10,2,12,0.00
2013-5-5,82.3,65.4,52.9,48.0,39.8,26.0,69,43,18,30.11,29.96,6,1,14,0.00
2013-5-6,82.4,63.9,48.5,48.0,38.4,27.0,64,42,20,30.07,29.92,6,1,11,0.00
2013-5-7,82.2,66.8,54.8,53.0,49.6,43.0,83,57,27,30.02,29.89,7,1,12,0.00
2013-5-8,70.8,62.4,55.1,60.0,55.6,49.0,94,79,60,29.95,29.80,9,1,12,0.12
2013-5-9,70.1,59.2,50.8,57.0,53.3,50.0,96,82,60,29.85,29.77,10,1,13,0.00
2013-5-10,75.1,62.7,52.4,59.0,54.8,51.0,96,78,52,29.86,29.64,9,1,16,0.25
2013-5-11,60.8,58.0,50.8,59.0,53.9,47.0,97,86,73,29.65,29.57,13,4,16,0.12
2013-5-12,52.7,47.4,37.8,48.0,35.2,27.0,88,65,40,29.83,29.59,23,10,30,0.00
2013-5-13,47.3,41.5,36.5,32.0,30.0,28.0,75,64,51,30.03,29.83,16,8,25,0.00
2013-5-14,60.9,44.5,30.2,34.0,30.9,28.0,92,62,33,30.08,29.91,8,2,14,0.00
2013-5-15,79.6,57.8,42.8,59.0,43.2,30.0,83,59,42,29.91,29.45,16,4,25,0.02
2013-5-16,75.5,64.4,52.4,48.0,42.8,37.0,74,48,27,29.85,29.62,21,6,26,0.00
2013-5-17,64.3,53.3,39.6,44.0,40.2,36.0,93,63,37,30.12,29.86,11,3,18,0.00
2013-5-18,73.4,58.7,43.6,52.0,45.4,39.0,85,64,39,30.17,30.06,4,1,10,0.00
2013-5-19,70.3,61.8,55.9,60.0,55.6,51.0,87,80,69,30.08,29.96,7,2,14,0.00
2013-5-20,88.2,72.2,60.8,65.0,61.5,57.0,91,71,45,29.98,29.76,10,1,15,0.00
2013-5-21,87.9,73.9,63.7,71.0,65.5,61.0,97,76,48,29.80,29.61,8,2,21,0.70
2013-5-22,88.0,73.7,63.9,71.0,65.3,59.0,98,77,46,29.71,29.57,9,2,19,0.08
2013-5-23,76.4,66.9,50.2,66.0,60.9,49.0,97,82,65,29.67,29.59,12,2,15,0.00
2013-5-24,49.5,41.8,39.1,49.0,40.5,38.0,98,95,88,30.05,29.68,16,7,28,0.16
2013-5-25,54.7,45.6,39.6,41.6,38.6,36.0,91,77,53,30.06,30.01,19,6,23,0.00
2013-5-26,59.4,51.0,40.7,41.0,37.4,34.0,90,63,39,30.10,29.97,25,5,25,0.00
2013-5-27,71.0,55.6,39.8,42.0,38.0,35.0,86,55,33,30.17,30.04,10,2,13,0.00
2013-5-28,61.6,55.9,52.0,57.0,48.5,37.0,98,78,54,30.08,29.88,10,2,12,0.48
2013-5-29,81.3,70.1,57.4,70.0,65.2,57.0,98,85,63,29.92,29.82,13,3,19,0.12
2013-5-30,87.7,75.9,65.1,70.0,66.1,63.0,93,73,47,30.00,29.92,8,2,11,0.00
2013-5-31,89.4,78.9,67.3,70.0,64.8,60.0,84,64,37,29.98,29.81,9,2,15,0.00
2013-6-1,86.9,77.4,66.0,69.0,65.7,62.0,89,69,50,29.84,29.68,14,3,22,0.00
2013-6-2,80.8,72.7,65.7,67.0,63.4,56.0,85,73,50,29.72,29.59,19,4,24,0.02
2013-6-3,65.9,56.8,50.8,58.0,48.4,44.0,88,75,51,29.90,29.72,11,4,18,0.00
2013-6-4,65.2,55.9,46.8,47.0,40.9,28.0,89,61,26,30.06,29.90,13,5,20,0.00
2013-6-5,72.9,59.0,45.3,49.0,44.0,39.0,83,60,33,30.11,29.96,8,2,15,0.00
2013-6-6,60.4,56.8,54.0,57.0,52.4,45.0,97,86,66,29.97,29.76,8,2,16,1.04
2013-6-7,65.4,61.7,58.2,62.0,59.7,57.0,98,93,87,29.76,29.66,7,1,10,0.12
2013-6-8,64.0,59.4,55.8,60.0,57.4,56.0,100,93,80,29.98,29.65,9,4,12,0.01
2013-6-9,76.7,63.9,53.1,58.0,55.0,52.0,96,75,49,30.09,29.98,8,2,12,0.00
2013-6-10,67.7,64.3,60.9,64.0,59.4,54.0,96,84,73,30.03,29.63,9,2,15,0.17
2013-6-11,65.2,63.2,58.8,64.0,61.2,56.0,98,93,84,29.69,29.54,13,4,20,0.30
2013-6-12,73.0,61.9,53.9,58.0,55.5,53.0,98,81,56,29.82,29.69,12,4,13,0.00
2013-6-13,62.9,60.1,56.6,60.0,56.8,55.0,97,89,76,29.69,29.38,11,4,16,0.40
2013-6-14,69.9,60.9,53.3,60.0,56.7,53.0,100,87,66,29.84,29.62,13,5,20,0.00
2013-6-15,72.8,63.8,52.6,58.0,52.5,46.0,95,69,39,29.93,29.85,12,4,16,0.00
2013-6-16,73.0,65.8,58.9,66.0,58.3,52.0,86,77,66,29.86,29.60,12,3,23,0.00
2013-6-17,78.9,67.8,58.5,65.0,60.6,56.0,95,79,47,29.81,29.72,16,4,19,0.07
2013-6-18,67.1,61.6,55.6,60.0,56.0,49.0,99,83,54,29.89,29.77,12,4,16,0.00
2013-6-19,65.5,57.6,46.3,53.0,46.5,42.0,98,70,46,30.09,29.89,13,2,14,0.00
2013-6-20,77.8,63.4,47.5,57.0,50.0,43.0,83,63,42,30.14,30.08,8,2,13,0.00
2013-6-21,84.1,69.4,55.3,63.0,56.8,47.0,86,66,45,30.16,30.05,7,2,10,0.00
2013-6-22,85.1,76.0,67.0,68.0,64.4,61.0,82,68,51,30.07,29.91,10,2,14,0.00
2013-6-23,88.0,76.2,70.3,74.0,69.1,66.0,97,79,56,29.97,29.89,16,2,25,0.84
2013-6-24,88.3,77.5,69.8,73.0,68.9,64.0,92,76,57,29.93,29.83,7,2,11,0.00
2013-6-25,82.6,75.1,67.7,72.0,67.0,64.0,88,76,63,29.85,29.68,12,3,16,0.01
2013-6-26,82.6,74.0,69.2,70.0,67.2,64.0,87,80,61,29.72,29.66,11,4,14,0.00
2013-6-27,82.5,72.9,64.6,72.0,67.7,63.0,97,85,66,29.69,29.48,6,1,16,0.32
2013-6-28,69.8,66.0,62.4,67.0,65.2,62.0,100,97,89,29.47,29.36,8,3,10,0.57
2013-6-29,72.7,66.4,62.1,68.0,65.0,62.0,100,95,78,29.59,29.38,7,1,15,0.31
2013-6-30,79.1,69.1,60.8,70.0,65.2,61.0,100,88,66,29.79,29.58,7,2,12,0.01
2013-7-1,69.3,67.1,64.8,69.0,66.5,64.0,100,98,90,29.90,29.78,6,2,8,0.33
2013-7-2,80.5,71.1,62.0,75.0,68.9,62.0,100,93,75,29.99,29.89,7,2,12,0.16
2013-7-3,90.3,78.4,69.4,76.0,71.8,69.0,98,81,59,30.05,29.97,9,1,10,0.00
2013-7-4,82.6,77.3,73.1,77.0,72.2,70.0,95,84,70,30.05,29.98,7,2,10,0.06
2013-7-5,86.5,77.9,70.8,76.0,72.3,69.0,99,84,63,30.03,29.91,11,2,25,0.68
2013-7-6,84.9,75.3,69.8,74.0,69.9,65.0,99,84,58,30.03,29.91,8,2,11,0.00
2013-7-7,85.5,77.4,71.5,75.0,71.8,69.0,98,84,64,29.94,29.80,9,3,16,0.67
2013-7-8,81.8,73.9,69.4,72.0,68.7,65.0,94,84,67,29.94,29.85,7,4,10,0.01
2013-7-9,85.0,74.8,68.5,74.0,70.6,68.0,99,87,67,29.93,29.81,8,1,20,0.19
2013-7-10,84.3,74.7,66.7,75.0,71.0,63.0,97,89,70,29.82,29.59,9,2,36,0.24
2013-7-11,75.4,69.0,63.5,68.0,63.2,60.0,96,82,67,29.90,29.69,10,4,12,0.00
2013-7-12,76.9,67.5,60.0,65.0,61.8,59.0,99,83,55,30.05,29.90,8,2,11,0.00
2013-7-13,78.9,71.4,63.0,71.0,67.3,62.0,98,87,75,30.15,30.04,6,1,11,0.00
2013-7-14,95.0,79.1,68.6,77.0,71.7,68.0,97,80,53,30.21,30.11,7,1,8,0.00
2013-7-15,87.0,78.9,71.9,74.0,72.1,66.0,96,81,62,30.17,30.09,9,3,12,0.00
2013-7-16,89.1,78.1,68.1,72.0,68.8,65.0,94,74,52,30.16,30.08,10,2,14,0.00
2013-7-17,91.2,80.2,68.8,78.0,72.3,67.0,96,78,54,30.11,29.95,12,2,18,0.00
2013-7-18,89.2,79.4,73.4,77.0,73.7,71.0,96,83,66,29.97,29.84,16,2,16,0.00
2013-7-19,91.9,81.6,73.0,76.0,71.8,66.0,92,73,52,29.84,29.61,14,5,25,0.00
2013-7-20,75.7,71.3,64.6,70.0,67.1,63.0,98,87,72,29.77,29.60,14,3,19,0.18
2013-7-21,78.7,70.0,61.1,66.0,62.6,60.0,99,79,56,29.89,29.77,9,3,12,0.00
2013-7-22,81.6,70.6,62.0,73.0,66.4,61.0,99,87,70,29.89,29.67,7,1,12,0.36
2013-7-23,81.4,71.3,66.3,70.0,67.6,66.0,100,89,63,29.67,29.50,8,2,11,0.34
2013-7-24,70.6,61.5,52.5,67.0,55.2,49.0,90,80,68,29.92,29.54,14,6,18,0.01
2013-7-25,73.6,61.3,50.1,58.0,51.8,49.0,94,73,49,30.01,29.94,10,3,18,0.00
2013-7-26,81.3,65.1,52.1,61.0,56.3,51.0,99,76,45,30.00,29.91,7,1,10,0.00
2013-7-27,81.0,69.9,59.4,69.0,62.6,55.0,97,78,59,29.91,29.76,9,1,16,0.30
2013-7-28,82.1,68.4,59.2,68.0,65.0,58.0,98,89,55,29.87,29.73,8,1,12,0.22
2013-7-29,69.4,62.6,57.0,61.0,57.7,55.0,100,85,65,30.03,29.88,10,2,19,0.00
2013-7-30,73.7,64.6,55.6,62.0,58.6,54.0,97,82,61,30.10,30.03,10,3,12,0.00
2013-7-31,83.2,68.4,55.7,64.0,59.8,55.0,99,77,48,30.05,29.85,7,0,9,0.00
2013-8-1,76.3,66.9,60.7,68.0,62.9,60.0,96,87,73,29.85,29.66,9,1,13,0.06
2013-8-2,77.0,65.6,57.2,66.0,61.3,57.0,99,87,63,29.80,29.73,15,1,20,0.12
2013-8-3,74.5,67.9,60.5,62.0,58.3,54.0,96,73,50,29.81,29.71,12,4,18,0.00
2013-8-4,68.9,63.2,57.9,60.0,56.3,52.0,90,79,59,29.92,29.80,18,6,20,0.13
2013-8-5,71.9,61.2,50.3,59.0,53.3,50.0,99,77,52,30.01,29.92,10,2,12,0.00
2013-8-6,81.3,67.2,55.1,62.0,57.0,52.0,89,71,47,29.96,29.91,7,1,14,0.00
2013-8-7,73.4,67.9,62.4,67.0,63.5,59.0,93,86,80,29.94,29.82,8,2,12,0.00
2013-8-8,85.0,71.8,65.7,74.0,67.8,64.0,99,87,66,29.87,29.79,20,2,30,1.01
2013-8-9,73.8,69.9,65.9,72.0,68.7,62.0,100,96,87,29.82,29.72,9,2,14,0.26
2013-8-10,71.6,64.8,53.6,63.0,57.4,51.0,94,78,57,29.99,29.82,11,4,21,0.00
2013-8-11,73.2,63.4,53.7,60.0,55.5,50.0,93,77,56,30.02,29.94,7,2,9,0.00
2013-8-12,76.0,67.2,56.2,67.0,60.2,55.0,95,79,61,29.95,29.78,6,1,8,0.00
2013-8-13,73.5,65.7,57.8,67.0,61.6,51.0,99,87,68,29.77,29.61,16,3,20,0.59
2013-8-14,65.4,58.8,53.0,56.0,51.8,49.0,95,78,58,29.97,29.73,14,6,23,0.02
2013-8-15,71.8,60.9,49.1,57.0,53.0,48.0,97,77,55,30.05,29.97,9,2,12,0.00
2013-8-16,73.9,62.8,53.4,60.0,53.5,51.0,92,74,48,30.11,30.02,8,2,11,0.00
2013-8-17,77.6,66.0,54.3,64.0,57.0,51.0,91,74,51,30.20,30.11,7,1,9,0.00
2013-8-18,78.8,68.1,60.5,63.0,59.9,57.0,92,76,50,30.14,30.01,5,1,7,0.00
2013-8-19,79.1,68.5,59.6,64.0,61.0,58.0,95,78,52,30.01,29.91,7,1,10,0.00
2013-8-20,82.6,69.8,58.9,67.0,61.7,58.0,98,78,52,30.04,29.95,7,1,10,0.00
2013-8-21,87.6,72.8,61.4,69.0,62.8,59.0,93,73,48,30.07,29.91,6,1,9,0.00
2013-8-22,83.5,72.7,63.4,70.0,66.2,61.0,95,81,61,29.92,29.76,10,2,20,0.00
2013-8-23,72.3,65.4,56.9,67.0,58.5,54.0,98,80,59,30.09,29.85,10,3,14,0.01
2013-8-24,75.6,62.2,52.1,61.0,55.0,51.0,100,80,48,30.25,30.09,7,2,12,0.00
2013-8-25,80.2,67.8,54.6,62.0,57.5,53.0,93,72,49,30.26,30.05,13,2,18,0.00
2013-8-26,78.4,70.2,65.8,70.0,65.4,59.0,100,85,69,30.09,29.80,9,2,23,0.84
2013-8-27,82.7,73.3,67.6,73.0,70.1,67.0,100,90,70,29.83,29.75,7,2,10,0.05
2013-8-28,80.6,72.6,67.7,75.0,70.6,67.0,100,94,77,29.80,29.72,8,2,13,0.16
2013-8-29,80.9,70.7,63.2,74.0,68.3,62.0,100,93,71,29.93,29.80,7,2,13,0.00
2013-8-30,88.3,72.6,61.5,71.0,66.0,62.0,100,82,53,29.91,29.67,6,1,10,0.02
2013-8-31,82.4,75.0,68.2,74.0,70.2,67.0,96,85,67,29.73,29.62,11,2,13,0.00
2013-9-1,85.7,74.0,66.1,72.0,69.0,65.0,99,85,63,29.73,29.63,6,1,16,0.08
2013-9-2,85.2,71.9,65.1,75.0,68.8,62.0,100,90,68,29.67,29.53,9,2,16,0.89
2013-9-3,66.8,63.7,60.4,62.0,58.6,56.0,94,83,72,29.82,29.66,14,5,18,0.00
2013-9-4,76.5,66.4,53.3,61.0,57.5,52.0,97,75,52,29.89,29.82,11,5,15,0.00
2013-9-5,68.2,59.8,47.2,62.0,51.0,44.0,93,74,55,30.10,29.83,12,5,19,0.00
2013-9-6,71.7,55.1,43.2,52.0,46.2,42.0,96,75,40,30.19,30.02,6,1,10,0.00
2013-9-7,68.4,61.4,52.6,59.0,53.1,46.0,84,74,59,30.02,29.77,9,1,11,0.00
2013-9-8,63.7,59.6,48.0,63.0,52.0,44.0,99,77,53,30.01,29.73,18,4,23,0.09
2013-9-9,78.4,59.8,45.2,58.0,50.5,43.0,91,73,49,30.09,29.92,5,1,13,0.00
2013-9-10,91.0,76.1,64.5,77.0,69.2,58.0,96,79,64,29.93,29.85,9,2,13,0.17
2013-9-11,89.6,79.5,69.4,76.0,72.4,68.0,96,80,58,29.94,29.81,11,2,18,0.18
2013-9-12,74.9,68.9,63.1,71.0,66.5,61.0,99,92,82,29.80,29.61,9,2,13,0.34
2013-9-13,62.9,55.4,49.0,61.0,54.2,48.0,98,96,91,29.87,29.60,15,7,20,0.15
2013-9-14,58.2,50.4,44.6,49.0,46.4,44.0,97,87,65,30.04,29.86,10,4,14,0.00
2013-9-15,67.1,54.8,43.7,55.0,48.8,42.0,97,81,57,30.09,29.96,15,1,16,0.00
2013-9-16,57.0,51.4,41.5,54.0,49.0,40.0,99,92,79,30.26,29.97,13,3,19,0.04
2013-9-17,68.7,49.3,36.4,49.0,42.4,35.0,98,79,49,30.39,30.22,8,2,10,0.00
2013-9-18,77.8,58.9,46.0,54.0,46.7,42.0,92,67,39,30.23,30.03,5,1,12,0.00
2013-9-19,80.2,63.1,50.1,58.0,50.4,45.0,85,65,41,30.04,29.93,8,1,10,0.00
2013-9-20,83.2,67.4,57.1,64.0,58.6,51.0,93,75,51,29.93,29.74,11,1,13,0.00
2013-9-21,68.1,62.1,56.8,62.0,58.9,56.0,99,89,77,29.74,29.51,11,2,16,1.16
2013-9-22,56.0,51.7,48.8,55.0,46.9,42.0,96,84,71,29.90,29.60,13,6,19,0.02
2013-9-23,55.4,49.4,45.2,46.0,43.5,41.0,92,80,64,30.03,29.90,13,4,14,0.00
2013-9-24,61.5,49.5,39.5,49.0,44.2,39.0,99,83,56,30.03,29.91,11,3,14,0.00
2013-9-25,67.6,52.6,40.9,55.0,47.1,40.0,99,83,58,29.92,29.84,8,2,12,0.00
2013-9-26,68.3,54.5,43.6,55.0,49.8,43.0,100,85,62,30.03,29.90,9,2,14,0.01
2013-9-27,68.4,55.3,45.0,57.0,51.3,45.0,100,87,61,30.17,30.03,8,2,10,0.01
2013-9-28,75.4,59.1,47.6,58.0,51.6,46.0,96,78,50,30.22,30.10,9,1,10,0.00
2013-9-29,76.6,60.9,50.6,55.0,50.6,47.0,90,71,44,30.10,29.93,10,1,19,0.00
2013-9-30,81.1,63.1,53.2,59.0,53.3,49.0,87,72,44,29.94,29.84,5,1,7,0.00
2013-10-1,73.5,62.9,54.5,62.0,56.7,52.0,94,81,56,29.92,29.83,7,1,10,0.00
2013-10-2,74.7,64.5,54.8,64.0,58.1,53.0,94,81,58,29.96,29.83,9,3,14,0.00
2013-10-3,72.9,61.1,49.4,56.0,51.7,44.0,99,74,41,30.04,29.92,4,1,6,0.00
2013-10-4,77.5,67.3,62.9,69.0,64.5,56.0,100,91,74,29.94,29.87,5,1,8,0.12
2013-10-5,68.2,63.3,60.7,66.0,62.7,61.0,100,98,90,29.98,29.92,6,2,9,0.04
2013-10-6,84.0,69.4,61.2,73.0,65.8,61.0,100,89,62,29.92,29.71,7,1,15,0.10
2013-10-7,71.0,61.6,52.3,66.0,56.7,44.0,98,84,63,29.92,29.52,20,5,27,1.11
2013-10-8,61.9,53.0,45.9,50.0,46.1,43.0,97,79,52,30.26,29.92,8,3,12,0.00
2013-10-9,69.9,52.3,41.3,50.0,44.4,40.0,96,77,36,30.33,30.21,8,1,9,0.00
2013-10-10,64.7,52.9,44.2,52.0,45.8,40.0,95,78,57,30.21,30.06,6,1,11,0.00
2013-10-11,62.6,54.5,47.8,56.0,50.5,44.0,98,87,60,30.05,30.00,7,1,11,0.06
2013-10-12,80.9,58.8,42.7,52.0,45.1,41.0,94,66,28,30.14,30.02,5,0,11,0.00
2013-10-13,74.9,61.6,54.4,56.0,52.6,50.0,89,73,51,30.20,30.14,7,1,10,0.00
2013-10-14,62.2,55.3,52.8,55.0,53.1,51.0,99,93,68,30.22,30.17,6,0,7,0.38
2013-10-15,71.0,59.0,52.6,59.0,54.7,51.0,99,86,66,30.18,29.91,5,0,10,0.00
2013-10-16,60.3,58.3,56.2,57.0,51.1,45.0,93,77,65,29.92,29.71,8,1,13,0.05
2013-10-17,66.2,56.9,49.3,57.0,50.8,48.0,98,81,54,29.79,29.54,11,3,19,0.62
2013-10-18,56.4,52.3,45.5,52.0,45.4,41.0,98,78,60,29.83,29.60,18,6,27,0.02
2013-10-19,60.0,53.0,46.0,49.0,44.6,41.0,93,74,57,29.82,29.57,20,2,24,0.02
2013-10-20,51.0,46.7,42.2,43.0,40.8,38.0,92,80,69,29.91,29.67,11,5,15,0.00
2013-10-21,65.0,54.1,45.4,43.0,40.7,39.0,84,62,41,29.94,29.72,7,2,18,0.00
2013-10-22,54.4,48.2,41.9,48.0,39.0,32.0,91,71,52,29.75,29.64,15,5,22,0.01
2013-10-23,49.1,41.7,36.3,39.0,36.1,33.0,94,81,55,29.73,29.57,10,2,14,0.01
2013-10-24,47.4,40.3,34.9,37.0,33.4,30.0,91,77,53,29.90,29.69,21,9,28,0.00
2013-10-25,46.1,41.6,38.7,39.0,36.3,33.0,92,82,71,30.09,29.90,14,6,21,0.00
2013-10-26,46.5,42.5,39.3,36.0,31.5,29.0,83,66,52,30.06,29.74,16,5,22,0.00
2013-10-27,47.4,43.1,39.9,37.0,34.9,32.0,83,73,63,29.99,29.73,18,7,22,0.00
2013-10-28,48.6,42.2,34.2,41.0,34.1,27.0,82,73,61,30.28,29.97,15,5,21,0.00
2013-10-29,45.6,36.5,26.9,32.0,27.7,23.0,86,71,52,30.38,30.23,7,2,10,0.00
2013-10-30,61.9,45.7,38.5,42.0,37.8,32.0,91,75,46,30.22,30.03,6,0,7,0.02
2013-10-31,60.1,53.9,46.2,58.0,51.6,40.0,98,92,78,30.02,29.43,9,2,22,0.26
2013-11-1,64.5,58.8,51.5,59.0,49.7,41.0,96,74,47,29.57,29.17,30,8,35,0.20
2013-11-2,53.2,47.0,37.2,46.0,42.8,34.0,96,85,66,29.83,29.52,14,4,19,0.12
2013-11-3,36.8,33.2,24.8,34.0,27.1,20.0,89,78,64,30.44,29.83,13,6,20,0.01
2013-11-4,47.2,33.1,22.7,27.0,21.0,18.0,88,63,36,30.58,30.43,9,1,10,0.00
2013-11-5,53.0,43.5,34.3,39.0,30.8,21.0,77,62,51,30.46,30.29,5,1,11,0.00
2013-11-6,59.5,52.3,44.8,50.0,45.4,39.0,88,77,64,30.29,29.76,9,2,13,0.00
2013-11-7,57.2,45.3,37.7,52.0,40.0,32.0,97,82,70,29.87,29.70,15,7,24,0.33
2013-11-8,39.8,37.2,33.9,33.0,30.4,27.0,93,77,60,30.13,29.85,20,9,27,0.00
2013-11-9,45.6,41.1,35.9,33.0,30.5,28.0,79,66,54,30.13,29.73,10,3,16,0.00
2013-11-10,47.8,44.3,38.8,42.0,34.8,30.0,85,70,57,30.02,29.70,28,10,33,0.00
2013-11-11,44.9,39.2,31.0,37.0,32.0,28.0,93,76,58,30.07,29.85,18,6,26,0.01
2013-11-12,30.5,27.9,24.8,29.0,23.0,19.0,94,82,64,30.27,29.99,21,10,24,0.00
2013-11-13,36.4,29.0,22.1,25.0,20.8,17.0,91,72,58,30.35,30.06,12,7,20,0.00
2013-11-14,54.3,37.4,29.2,22.0,17.9,15.0,66,47,26,30.07,29.98,14,3,16,0.00
2013-11-15,59.1,47.0,37.2,28.0,23.5,20.0,52,40,27,30.06,29.98,7,1,10,0.00
2013-11-16,63.6,49.8,38.6,41.0,35.6,25.0,77,60,40,30.18,30.02,7,1,12,0.00
2013-11-17,57.6,53.0,47.8,55.0,49.7,41.0,94,89,75,30.02,29.35,11,3,20,0.13
2013-11-18,57.3,48.7,36.2,55.0,38.1,26.0,95,68,48,29.78,29.32,29,12,35,0.09
2013-11-19,36.6,34.0,30.4,32.0,27.9,25.0,94,78,66,30.34,29.77,25,10,32,0.01
2013-11-20,43.7,30.8,21.5,26.0,19.8,16.0,84,65,42,30.52,30.33,8,2,13,0.02
2013-11-21,45.3,37.3,29.8,37.0,25.6,13.0,91,64,47,30.44,30.20,6,1,14,0.03
2013-11-22,48.1,42.6,34.6,46.0,41.2,30.0,98,94,82,30.21,29.87,19,3,27,0.24
2013-11-23,37.1,28.8,18.9,30.0,23.0,13.0,90,79,62,30.06,29.86,26,12,30,0.00
2013-11-24,22.1,18.5,16.1,17.0,13.9,10.0,93,82,63,30.31,30.02,27,12,30,0.00
2013-11-25,36.5,26.6,19.0,21.0,15.8,13.0,84,65,45,30.33,30.08,12,4,19,0.00
2013-11-26,35.4,32.0,28.8,35.0,28.7,15.0,97,88,52,30.11,29.70,14,1,16,0.49
2013-11-27,34.5,30.7,22.3,34.0,29.3,20.0,99,94,81,29.76,29.48,19,10,30,0.63
2013-11-28,25.8,22.5,19.4,22.0,17.3,14.0,95,81,66,30.35,29.77,23,8,36,0.00
2013-11-29,27.0,21.6,11.6,23.0,17.4,8.0,95,84,66,30.67,30.35,11,3,13,0.00
2013-11-30,31.2,22.9,10.7,23.0,15.5,8.0,91,75,54,30.66,30.18,7,2,12,0.01
2013-12-1,40.0,32.9,29.4,33.0,27.6,23.0,96,81,66,30.18,29.90,8,1,11,0.06
2013-12-2,39.7,36.2,33.5,35.0,33.5,32.0,96,90,81,29.90,29.77,5,1,7,0.09
2013-12-3,40.0,33.2,27.2,33.0,30.1,25.0,96,88,72,29.93,29.80,6,1,7,0.01
2013-12-4,51.6,40.9,30.4,43.0,37.3,28.0,97,87,71,29.98,29.89,7,2,11,0.00
2013-12-5,54.3,49.9,42.5,52.0,47.5,42.0,97,91,87,29.90,29.72,14,3,16,0.08
2013-12-6,42.2,34.2,28.5,41.0,31.5,28.0,97,90,78,30.14,29.87,10,6,16,0.36
2013-12-7,30.0,27.9,24.2,28.0,20.6,15.0,94,75,62,30.46,30.13,16,9,24,0.00
2013-12-8,29.4,24.8,19.6,23.0,17.4,15.0,92,74,62,30.50,30.19,12,2,14,0.00
2013-12-9,39.5,33.4,24.9,36.0,29.9,23.0,95,87,72,30.17,29.80,12,3,19,0.02
2013-12-10,33.4,26.2,19.5,25.0,20.2,13.0,90,78,68,29.98,29.82,15,7,26,0.00
2013-12-11,25.6,22.0,17.4,23.0,18.5,10.0,94,86,74,30.17,29.98,14,6,23,0.00
2013-12-12,20.3,17.2,12.5,13.0,10.2,8.0,91,74,60,30.24,29.99,16,9,24,0.00
2013-12-13,24.9,19.1,15.5,21.0,16.0,11.0,93,87,74,30.30,29.95,20,7,25,0.00
2013-12-14,21.9,17.7,12.9,21.0,15.3,10.0,95,90,82,30.36,29.70,8,3,19,0.00
2013-12-15,27.1,24.1,21.8,25.0,22.5,15.0,97,93,75,29.75,29.52,20,5,24,0.00
2013-12-16,21.4,16.7,8.0,16.0,12.1,5.0,93,82,70,30.11,29.76,21,7,24,0.00
2013-12-17,25.6,18.7,7.3,24.0,16.9,5.0,95,92,87,30.09,29.86,7,2,14,0.00
2013-12-18,29.4,27.1,23.7,28.0,24.9,22.0,97,91,76,30.00,29.86,12,5,16,0.02
2013-12-19,42.7,34.0,25.7,33.0,26.2,21.0,84,73,57,30.00,29.88,6,1,13,0.22
2013-12-20,49.2,44.4,38.8,47.0,38.4,33.0,94,80,60,29.93,29.73,8,1,15,0.08
2013-12-21,55.2,47.4,32.5,52.0,46.0,32.0,99,95,86,29.75,29.68,11,2,19,0.50
2013-12-22,63.9,43.8,32.0,57.0,41.8,32.0,100,93,71,29.88,29.47,21,5,30,0.04
2013-12-23,42.1,37.2,28.7,41.0,34.1,22.0,98,88,71,30.14,29.86,19,6,24,0.04
2013-12-24,28.6,21.9,13.5,26.0,18.7,9.0,95,87,78,30.37,30.08,16,7,25,0.00
2013-12-25,23.5,16.3,9.3,16.0,11.1,7.0,91,80,71,30.46,30.19,19,3,23,0.00
2013-12-26,33.7,26.8,22.3,27.0,22.3,16.0,93,83,70,30.18,30.00,15,4,21,0.01
2013-12-27,32.4,28.0,21.1,28.0,23.4,17.0,90,83,74,30.20,30.08,12,3,19,0.00
2013-12-28,49.3,39.1,30.0,36.0,30.5,26.0,84,72,59,30.06,29.88,13,3,20,0.02
2013-12-29,44.2,38.5,33.8,38.0,33.0,29.0,99,82,57,29.88,29.55,14,1,15,0.39
2013-12-30,38.0,21.0,14.6,34.0,17.0,9.0,96,84,75,30.13,29.61,18,9,26,0.00
2013-12-31,26.1,18.6,15.5,20.0,12.9,8.0,92,78,65,30.18,29.90,22,7,35,0.00
2014-1-1,20.9,18.1,16.0,15.0,11.2,8.0,90,75,63,30.32,30.17,13,6,18,0.00
2014-1-2,16.0,11.2,0.2,13.0,8.9,-3.0,91,90,88,30.19,29.84,11,5,14,0.00